[[{"header":{"parameterUnit":"m.s-1","parameterCategory":2,"la1":30.2991,"la2":30.254,"lo1":-89.0895,"lo2":-89.0444,"dy":0.0017,"dx":0.0017,"nx":28,"ny":28,"refTime":"2023-09-21T09:00:00:Z","depth":"0","parameterNumber":2,"parameterNumberName":"U-component_of_CURRENTS"},"data":[0,0,0,0,0,0,0,0,0,0,0,0,0,0,0,0,0,0,0,0,0,0,0,0,0,0,0,0,0,0,0,0,0,0,0,0,0,0,0,0,0,0,0,0,0,0,0,0,0,0,0,0,0,0,0,0,0,0,0.2221,0.2221,0,0.2226,0.2226,0.2226,0.2217,0.2217,0.2217,0.2217,0.22,0.2199,0.2199,0,0,0,0,0,0,0,0,0,0,0,0,0,0.2194,0.2195,0.2221,0.2221,0.2222,0.2226,0.2226,0.2226,0.2217,0.2217,0.2217,0.2217,0.22,0.22,0.2199,0,0,0,0,0,0,0,0,0,0,0,0,0,0.2201,0.2195,0.2221,0.222,0.222,0.2226,0.2226,0.2226,0.2217,0.2217,0.2217,0.2217,0.22,0.22,0.2199,0.2198,0,0,0.2197,0.2197,0,0,0,0,0,0,0,0,0.2201,0.2202,0.222,0.222,0.222,0.2223,0.221,0.2216,0.2217,0.2216,0.2217,0.2217,0.2207,0.2206,0.2204,0.2197,0.2197,0.2197,0.2197,0.2197,0.2197,0,0,0,0,0,0,0,0.22,0.2202,0.2221,0.222,0.222,0.2215,0.2216,0.2211,0.221,0.2216,0.2216,0.222,0.2207,0.2205,0.2204,0.2196,0.2197,0.2197,0.2196,0.2196,0.2238,0.2239,0,0,0,0,0,0,0.2205,0.2201,0.2221,0.2221,0.2212,0.2216,0.2217,0.222,0.2211,0.221,0.222,0.222,0.2206,0.2205,0.2203,0.2243,0.2197,0.2196,0.2196,0.2236,0.2238,0.224,0,0,0,0,0,0,0.2204,0.2207,0.2221,0.2213,0.2215,0.2217,0.2221,0.222,0.2224,0.2214,0.2213,0.2225,0.2206,0.2204,0.2214,0.2241,0.2196,0.2195,0.2235,0.2237,0.2239,0.2296,0,0,0,0,0,0,0.2203,0.2206,0.2209,0.2213,0.2215,0.2234,0.2221,0.2221,0.2228,0.2227,0.2218,0.2216,0.2206,0.2215,0.2213,0.2239,0.2195,0.2233,0.2236,0.2238,0.2293,0.23,0.2307,0,0,0,0,0,0.2202,0.2208,0.2209,0.2212,0.222,0.2235,0.2236,0.2235,0.2228,0.2236,0.2234,0.2217,0.2231,0.2215,0.2213,0.224,0.2231,0.2235,0.2238,0.229,0.2299,0.2307,0,0,0,0,0,0,0.2196,0.2208,0.2209,0.2218,0.2231,0.2235,0.2241,0.224,0.2243,0.2242,0.2229,0.2227,0.2249,0.2236,0.2219,0.2261,0.2231,0.2234,0.2271,0.228,0.2287,0.2291,0.2194,0,0,0,0,0,0.2197,0.2206,0.2218,0.2226,0.2234,0.2238,0.2243,0.2246,0.225,0.2251,0.2247,0.2248,0.226,0.2263,0.2266,0.2282,0.2292,0.2301,0.2308,0.2314,0.2318,0.2364,0.2375,0.225,0.225,0.225,0,0,0.2195,0.2205,0.2208,0.2226,0.2233,0.2253,0.2241,0.2255,0.2273,0.2249,0.2268,0.227,0.227,0.2295,0.2304,0.2288,0.2358,0.2318,0.2323,0.2324,0.2368,0.2381,0.2391,0.2252,0.2252,0.2252,0,0,0.2201,0.2207,0.222,0.2235,0.2255,0.2264,0.2272,0.2283,0.229,0.2308,0.2305,0.2325,0.2328,0.2344,0.235,0.2397,0.2395,0.24,0.2438,0.2483,0.2493,0.2503,0.2543,0.2556,0.2403,0.2403,0.2403,0,0.2198,0.2217,0.2226,0.2247,0.2262,0.2273,0.2295,0.2308,0.2321,0.2335,0.2321,0.2358,0.2355,0.2401,0.242,0.2414,0.2437,0.2404,0.2492,0.2501,0.251,0.255,0.2563,0.2406,0.2406,0.2406,0.2405,0,0.2218,0.2235,0.2246,0.2278,0.2297,0.2318,0.2343,0.2363,0.237,0.2384,0.2424,0.2427,0.2452,0.246,0.2451,0.2518,0.2515,0.2497,0.247,0.2526,0.2564,0.2577,0.2411,0.241,0.2409,0.2408,0,0,0.2199,0.225,0.2252,0.2274,0.2315,0.2332,0.2374,0.2413,0.2444,0.2461,0.2503,0.2529,0.2534,0.2543,0.2545,0.2579,0.2662,0.2567,0.2568,0.2606,0.2768,0.2746,0.2757,0.2663,0.2665,0.2667,0.2774,0,0.221,0.2252,0.2277,0.232,0.2343,0.2376,0.2415,0.2454,0.2483,0.2527,0.255,0.2585,0.2567,0.2584,0.2622,0.2652,0.2696,0.2634,0.2708,0.271,0.2682,0.2771,0.2693,0.278,0.2786,0.2788,0.279,0,0.2215,0.2246,0.2285,0.2345,0.2359,0.2389,0.2454,0.2492,0.2561,0.2583,0.263,0.2648,0.2712,0.2678,0.2773,0.2737,0.2761,0.2777,0.2782,0.2747,0.2711,0.2723,0.2803,0.2761,0.2809,0.2807,0.2806,0,0.2187,0.2248,0.2278,0.2297,0.2368,0.2395,0.2438,0.2506,0.2543,0.2624,0.2666,0.273,0.2779,0.2818,0.2861,0.2825,0.2962,0.2913,0.2918,0.2916,0.2857,0.2846,0.2901,0.2984,0.2983,0.2983,0.2983,0,0.2181,0.2204,0.2268,0.2284,0.2327,0.2385,0.2438,0.249,0.257,0.2622,0.2696,0.2748,0.2818,0.2897,0.2908,0.2972,0.3009,0.2949,0.2953,0.2875,0.2865,0.2828,0.2793,0.2987,0.2986,0.2986,0.2985,0,0.2136,0.2179,0.2216,0.229,0.2311,0.2341,0.2423,0.2461,0.2558,0.2634,0.2665,0.2789,0.2891,0.2965,0.3048,0.3044,0.3018,0.3097,0.3003,0.2993,0.2915,0.2885,0.2828,0.2731,0.3109,0.311,0.311,0,0.2113,0.2128,0.2197,0.2212,0.2242,0.2296,0.2328,0.2428,0.2475,0.2643,0.2676,0.282,0.2896,0.3044,0.3077,0.3135,0.3034,0.3082,0.2985,0.2928,0.2898,0.2772,0.2684,0.2937,0.2936,0.2935,0.2934,0,0.2066,0.209,0.2117,0.2153,0.2184,0.2219,0.2284,0.2317,0.2446,0.2534,0.2646,0.2727,0.2906,0.2945,0.3059,0.3067,0.2946,0.306,0.3031,0.2803,0.2639,0.2541,0.285,0.2925,0.2926,0.2927,0.2927,0.2928,0.2017,0.2022,0.2056,0.208,0.2109,0.2127,0.213,0.2212,0.228,0.239,0.2533,0.2638,0.2805,0.2947,0.2944,0.2943,0.288,0.287,0.2854,0.2742,0.2598,0.2889,0.2942,0.2943,0.2943,0.2944,0.2945,0,0.1948,0.1962,0.1982,0.1999,0.1987,0.2038,0.2079,0.207,0.2111,0.227,0.2362,0.2547,0.264,0.2756,0.2863,0.2781,0.262,0.2708,0.2522,0.2452,0.2761,0.2704,0.267,0.267,0.267,0.267,0.267,0.267,0.1912,0.1899,0.191,0.1866,0.1874,0.1829,0.183,0.1843,0.1931,0.2043,0.2166,0.2307,0.2598,0.2796,0.2795,0.2707,0.2474,0.2377,0.2334,0.2588,0.2601,0.2613,0.2553,0.2488,0.2488,0.1925,0.1921,0.1918]},{"header":{"parameterUnit":"m.s-1","parameterCategory":2,"la1":30.2991,"la2":30.254,"lo1":-89.0895,"lo2":-89.0444,"dy":0.0017,"dx":0.0017,"nx":28,"ny":28,"refTime":"2023-09-21T09:00:00:Z","depth":"0","parameterNumber":3,"parameterNumberName":"V-component_of_CURRENTS"},"data":[0,0,0,0,0,0,0,0,0,0,0,0,0,0,0,0,0,0,0,0,0,0,0,0,0,0,0,0,0,0,0,0,0,0,0,0,0,0,0,0,0,0,0,0,0,0,0,0,0,0,0,0,0,0,0,0,0,0,-0.021,-0.021,0,-0.0274,-0.0275,-0.0276,-0.0314,-0.0314,-0.0314,-0.0315,-0.0409,-0.0411,-0.0413,0,0,0,0,0,0,0,0,0,0,0,0,0,-0.0156,-0.0156,-0.021,-0.021,-0.0211,-0.0274,-0.0275,-0.0276,-0.0314,-0.0314,-0.0314,-0.0315,-0.0408,-0.0411,-0.0414,0,0,0,0,0,0,0,0,0,0,0,0,0,-0.0196,-0.0157,-0.0209,-0.0237,-0.024,-0.0274,-0.0275,-0.0276,-0.0314,-0.0314,-0.0315,-0.0315,-0.0407,-0.0411,-0.0414,-0.0433,0,0,-0.0425,-0.0427,0,0,0,0,0,0,0,0,-0.0194,-0.0198,-0.0232,-0.0235,-0.0239,-0.0286,-0.0291,-0.033,-0.0314,-0.0287,-0.0315,-0.0315,-0.037,-0.0377,-0.0389,-0.0437,-0.0441,-0.0425,-0.0428,-0.0429,-0.043,0,0,0,0,0,0,0,-0.0191,-0.0196,-0.0236,-0.0233,-0.0237,-0.0259,-0.0265,-0.0298,-0.0327,-0.0289,-0.0292,-0.0298,-0.0372,-0.0385,-0.0391,-0.0443,-0.0425,-0.0428,-0.0431,-0.0432,-0.0516,-0.0516,0,0,0,0,0,0,-0.018,-0.0193,-0.0234,-0.0238,-0.0216,-0.026,-0.0266,-0.0271,-0.0327,-0.0335,-0.0298,-0.03,-0.0379,-0.0387,-0.0395,-0.0424,-0.0429,-0.0432,-0.0435,-0.0516,-0.0516,-0.0516,0,0,0,0,0,0,-0.0178,-0.0183,-0.0231,-0.0216,-0.0224,-0.026,-0.0266,-0.0272,-0.0285,-0.0333,-0.0342,-0.0304,-0.0379,-0.039,-0.0423,-0.0428,-0.0434,-0.0437,-0.0516,-0.0516,-0.0516,-0.048,0,0,0,0,0,0,-0.0176,-0.0182,-0.0181,-0.0216,-0.0224,-0.0246,-0.0266,-0.0273,-0.0288,-0.0291,-0.0341,-0.035,-0.038,-0.0417,-0.0426,-0.0433,-0.044,-0.0516,-0.0516,-0.0516,-0.0481,-0.0478,-0.0476,0,0,0,0,0,-0.0174,-0.0171,-0.018,-0.0185,-0.0222,-0.0246,-0.0252,-0.0279,-0.0288,-0.0292,-0.0326,-0.0348,-0.0425,-0.042,-0.0431,-0.0438,-0.0516,-0.0516,-0.0516,-0.0482,-0.0479,-0.0477,0,0,0,0,0,0,-0.0147,-0.0176,-0.0186,-0.0192,-0.0214,-0.0252,-0.0256,-0.0275,-0.0304,-0.0307,-0.0351,-0.0363,-0.0393,-0.0419,-0.0413,-0.0463,-0.0474,-0.0476,-0.0443,-0.0441,-0.0439,-0.042,-0.0443,0,0,0,0,0,-0.0139,-0.0144,-0.0176,-0.0179,-0.0188,-0.0221,-0.0233,-0.0251,-0.0282,-0.0295,-0.033,-0.0367,-0.0403,-0.0423,-0.0456,-0.0484,-0.0502,-0.0496,-0.0493,-0.0491,-0.0483,-0.0524,-0.0524,-0.0517,-0.0517,-0.0517,0,0,-0.013,-0.0146,-0.0149,-0.0174,-0.0192,-0.0202,-0.0229,-0.0243,-0.0254,-0.0301,-0.0324,-0.0361,-0.0408,-0.0439,-0.0455,-0.0461,-0.05,-0.0492,-0.049,-0.0482,-0.0524,-0.0525,-0.0525,-0.0517,-0.0517,-0.0517,0,0,-0.0112,-0.0126,-0.0124,-0.0139,-0.0163,-0.0184,-0.0185,-0.022,-0.0238,-0.0265,-0.0302,-0.0339,-0.039,-0.0427,-0.0452,-0.0458,-0.0486,-0.0469,-0.0447,-0.0487,-0.0488,-0.0489,-0.0496,-0.0498,-0.047,-0.047,-0.047,0,-0.0099,-0.0101,-0.0127,-0.0129,-0.0136,-0.0172,-0.017,-0.0195,-0.0237,-0.025,-0.0264,-0.0341,-0.0384,-0.0426,-0.0431,-0.0453,-0.0468,-0.0453,-0.0484,-0.0485,-0.0487,-0.0494,-0.0497,-0.0468,-0.0468,-0.0469,-0.0469,0,-0.0081,-0.0082,-0.0081,-0.0094,-0.0106,-0.0109,-0.0143,-0.0158,-0.0182,-0.0211,-0.0251,-0.031,-0.0353,-0.0378,-0.0409,-0.0444,-0.0446,-0.0474,-0.0488,-0.0485,-0.0493,-0.0496,-0.0466,-0.0466,-0.0467,-0.0467,0,0,-0.0048,-0.0065,-0.0063,-0.0059,-0.0085,-0.0091,-0.0106,-0.013,-0.0131,-0.0184,-0.0193,-0.0272,-0.03,-0.033,-0.0378,-0.0419,-0.0446,-0.0447,-0.045,-0.0448,-0.0509,-0.0486,-0.0488,-0.0482,-0.0483,-0.0483,-0.0503,0,-0.0023,-0.0013,-0.0031,-0.0019,-0.0015,-0.0046,-0.005,-0.0077,-0.0109,-0.0127,-0.0196,-0.0224,-0.0284,-0.03,-0.0353,-0.042,-0.0455,-0.0436,-0.0516,-0.0517,-0.0494,-0.0492,-0.0471,-0.0485,-0.0506,-0.0507,-0.0507,0,0.0005,0.0008,0.0027,0.0027,0.0028,0.0032,0.0026,0.0014,-0.0027,-0.0051,-0.01,-0.0148,-0.0212,-0.026,-0.0374,-0.0358,-0.0426,-0.0482,-0.0485,-0.0479,-0.0502,-0.0496,-0.0491,-0.0639,-0.0513,-0.0512,-0.0512,0,0.0051,0.0051,0.0071,0.0071,0.0064,0.0073,0.007,0.0042,0.0049,0.0001,0.0008,-0.0089,-0.0111,-0.0225,-0.0336,-0.0358,-0.0447,-0.0495,-0.0537,-0.0535,-0.0539,-0.0536,-0.0683,-0.0574,-0.0574,-0.0574,-0.0574,0,0.0089,0.0106,0.0099,0.0113,0.015,0.0124,0.0159,0.0137,0.0129,0.0159,0.0057,0.007,-0.0104,-0.0173,-0.0301,-0.041,-0.0422,-0.0523,-0.0542,-0.0523,-0.0519,-0.0665,-0.0755,-0.0575,-0.0574,-0.0574,-0.0574,0,0.014,0.0132,0.0161,0.0167,0.0176,0.0204,0.0232,0.0255,0.0236,0.0275,0.027,0.0195,0.011,-0.0051,-0.0216,-0.0337,-0.0544,-0.0502,-0.0447,-0.0461,-0.0646,-0.0733,-0.089,-0.0956,-0.0557,-0.0557,-0.0556,0,0.0167,0.0187,0.0213,0.0242,0.0251,0.0288,0.0321,0.0311,0.0344,0.0367,0.0399,0.0337,0.0316,0.009,-0.0141,-0.0346,-0.0509,-0.0468,-0.0521,-0.0645,-0.0758,-0.0832,-0.0882,-0.0508,-0.0507,-0.0507,-0.0506,0,0.0222,0.0233,0.0259,0.0319,0.0361,0.0408,0.0455,0.0503,0.0515,0.0556,0.0611,0.0603,0.0408,0.0216,-0.0067,-0.0228,-0.0574,-0.0462,-0.0624,-0.0753,-0.0811,-0.0886,-0.0487,-0.0501,-0.0502,-0.0502,-0.0502,-0.0502,0.027,0.0301,0.034,0.0398,0.0451,0.0526,0.0577,0.0641,0.0721,0.0798,0.0785,0.0805,0.0521,0.0142,-0.0091,-0.0509,-0.054,-0.0648,-0.0746,-0.081,-0.0877,-0.0442,-0.0461,-0.0461,-0.0462,-0.0462,-0.0462,0,0.0326,0.0357,0.0414,0.0483,0.055,0.0565,0.0663,0.0722,0.0833,0.092,0.0972,0.0866,0.051,0.0125,-0.0422,-0.0734,-0.0878,-0.0921,-0.1047,-0.1088,-0.0727,-0.0728,-0.0765,-0.0765,-0.0765,-0.0764,-0.0764,-0.0764,0.0357,0.0417,0.044,0.0554,0.0606,0.0693,0.0752,0.0852,0.0932,0.1038,0.1069,0.1068,0.0801,-0.0188,-0.0901,-0.1077,-0.1308,-0.1353,-0.1484,-0.1266,-0.1249,-0.1233,-0.1256,-0.1403,-0.1404,-0.18,-0.1804,-0.1807]}],[{"header":{"parameterUnit":"m.s-1","parameterCategory":2,"la1":30.2991,"la2":30.254,"lo1":-89.0895,"lo2":-89.0444,"dy":0.0017,"dx":0.0017,"nx":28,"ny":28,"refTime":"2023-09-21T09:00:00:Z","depth":"2","parameterNumber":2,"parameterNumberName":"U-component_of_CURRENTS"},"data":[0,0,0,0,0,0,0,0,0,0,0,0,0,0,0,0,0,0,0,0,0,0,0,0,0,0,0,0,0,0,0,0,0,0,0,0,0,0,0,0,0,0,0,0,0,0,0,0,0,0,0,0,0,0,0,0,0,0,0.2178,0.2178,0,0.2187,0.2187,0.2187,0.2187,0.2187,0.2187,0.2187,0.2187,0.2187,0.2186,0,0,0,0,0,0,0,0,0,0,0,0,0,0.215,0.215,0.2178,0.2178,0.2179,0.2187,0.2187,0.2187,0.2187,0.2187,0.2187,0.2187,0.2187,0.2187,0.2186,0,0,0,0,0,0,0,0,0,0,0,0,0,0.2159,0.215,0.2178,0.2181,0.2182,0.2187,0.2187,0.2187,0.2187,0.2187,0.2187,0.2187,0.2187,0.2187,0.2186,0.2183,0,0,0.2186,0.2186,0,0,0,0,0,0,0,0,0.2158,0.2159,0.2181,0.2181,0.2182,0.2188,0.2177,0.2186,0.2187,0.2183,0.2187,0.2187,0.2187,0.2187,0.2186,0.2183,0.2183,0.2186,0.2186,0.2186,0.2186,0,0,0,0,0,0,0,0.2158,0.2159,0.218,0.2181,0.2182,0.2178,0.2179,0.2178,0.2183,0.2183,0.2184,0.2188,0.2187,0.2186,0.2186,0.2183,0.2186,0.2186,0.2186,0.2186,0.2237,0.2239,0,0,0,0,0,0,0.2161,0.2159,0.2179,0.218,0.2172,0.2179,0.218,0.2184,0.2183,0.2183,0.2188,0.2188,0.2186,0.2186,0.2186,0.2236,0.2186,0.2186,0.2186,0.2236,0.2238,0.2239,0,0,0,0,0,0,0.216,0.2163,0.2179,0.2171,0.2173,0.218,0.2184,0.2184,0.2193,0.2187,0.2187,0.2198,0.2186,0.2186,0.2201,0.2234,0.2186,0.2186,0.2234,0.2236,0.2238,0.2301,0,0,0,0,0,0,0.216,0.2162,0.2168,0.2171,0.2174,0.2194,0.2184,0.2184,0.2196,0.2196,0.2195,0.2195,0.2186,0.2202,0.2201,0.2233,0.2186,0.2232,0.2235,0.2238,0.2297,0.2305,0.2312,0,0,0,0,0,0.2158,0.2166,0.2168,0.2171,0.2181,0.2195,0.2196,0.2199,0.2197,0.2207,0.2208,0.2195,0.2219,0.2202,0.2202,0.2234,0.2231,0.2234,0.2237,0.2294,0.2304,0.2312,0,0,0,0,0,0,0.2155,0.2167,0.217,0.218,0.2193,0.2196,0.2205,0.2207,0.2215,0.2217,0.2207,0.2207,0.2236,0.2225,0.2207,0.2258,0.2225,0.2229,0.2269,0.2278,0.2285,0.2287,0.2185,0,0,0,0,0,0.2158,0.2168,0.2179,0.2189,0.2197,0.2203,0.221,0.2214,0.2221,0.2225,0.2225,0.2231,0.2247,0.2253,0.2259,0.2281,0.2287,0.2304,0.2311,0.2317,0.232,0.2367,0.2379,0.225,0.225,0.225,0,0,0.2157,0.2167,0.2172,0.219,0.2198,0.2218,0.2207,0.2224,0.2244,0.2223,0.2249,0.2254,0.2258,0.2288,0.23,0.2284,0.2359,0.2321,0.2327,0.2325,0.2371,0.2384,0.2395,0.2252,0.2251,0.2251,0,0,0.2165,0.2175,0.2187,0.2202,0.2224,0.2232,0.2242,0.2255,0.2265,0.2288,0.2287,0.2312,0.2323,0.234,0.2349,0.2399,0.2396,0.2405,0.2444,0.2491,0.2502,0.2511,0.2542,0.2553,0.241,0.241,0.241,0,0.2165,0.2184,0.2193,0.2214,0.223,0.2243,0.2265,0.2281,0.2298,0.2314,0.2304,0.2348,0.235,0.24,0.2421,0.2417,0.2437,0.241,0.2501,0.2511,0.252,0.2548,0.256,0.2413,0.2413,0.2412,0.2412,0,0.2184,0.2203,0.2214,0.2246,0.2266,0.2287,0.2314,0.2336,0.235,0.2367,0.2413,0.242,0.2449,0.246,0.2456,0.2526,0.2518,0.2505,0.2478,0.2536,0.2562,0.2574,0.2418,0.2417,0.2416,0.2415,0,0,0.2168,0.2217,0.2221,0.2242,0.2285,0.2302,0.2346,0.2387,0.2421,0.2444,0.249,0.2523,0.2533,0.2543,0.2549,0.2586,0.2669,0.2577,0.2578,0.2607,0.277,0.2721,0.2729,0.2678,0.2681,0.2682,0.2765,0,0.2179,0.2219,0.2244,0.2287,0.2311,0.2345,0.2386,0.2428,0.2461,0.2511,0.2539,0.2582,0.2565,0.2588,0.2627,0.2662,0.2702,0.2647,0.2709,0.2711,0.266,0.2742,0.2535,0.2588,0.2776,0.2778,0.2779,0,0.2184,0.2214,0.2253,0.2312,0.2326,0.2357,0.2425,0.2466,0.2541,0.2567,0.2619,0.2643,0.2712,0.2682,0.2773,0.2743,0.2764,0.278,0.2783,0.2721,0.2684,0.2559,0.2601,0.2799,0.2797,0.2796,0.2794,0,0.2159,0.2218,0.2249,0.2268,0.2337,0.2366,0.241,0.2482,0.2523,0.2612,0.2658,0.2725,0.2777,0.2817,0.2852,0.2828,0.2943,0.291,0.2882,0.2878,0.2705,0.2681,0.2974,0.2974,0.2974,0.2973,0.2973,0,0.2153,0.2178,0.224,0.2256,0.2302,0.2359,0.2417,0.2471,0.2555,0.2609,0.2691,0.2738,0.2818,0.2885,0.2894,0.2933,0.2982,0.2907,0.2907,0.2721,0.2699,0.2875,0.2862,0.2977,0.2976,0.2975,0.2975,0,0.2112,0.2154,0.2191,0.2263,0.2288,0.2321,0.241,0.2449,0.2549,0.2626,0.2661,0.2781,0.2867,0.2931,0.3007,0.2992,0.3022,0.3017,0.2788,0.2759,0.2914,0.2904,0.3002,0.3002,0.3001,0.3,0.3,0,0.2091,0.2106,0.2177,0.2195,0.2225,0.2285,0.2322,0.2425,0.247,0.2628,0.2659,0.2791,0.2844,0.2957,0.2967,0.3001,0.3024,0.2811,0.2722,0.2933,0.2923,0.2914,0.2905,0.2518,0.2513,0.251,0.2507,0,0.2049,0.2074,0.2101,0.214,0.2176,0.2216,0.2283,0.2314,0.2437,0.2517,0.2605,0.2668,0.2802,0.275,0.2823,0.28,0.279,0.2739,0.3039,0.2543,0.2483,0.247,0.2476,0.2475,0.2478,0.248,0.2482,0.2483,0.2007,0.2013,0.2047,0.2074,0.2108,0.2125,0.213,0.2202,0.2261,0.2341,0.2462,0.2495,0.2559,0.2563,0.2507,0.2482,0.2664,0.2537,0.2545,0.2558,0.2487,0.2429,0.2398,0.24,0.2403,0.2405,0.2406,0,0.1943,0.1959,0.1979,0.1999,0.1989,0.2044,0.2082,0.2062,0.2081,0.2182,0.2241,0.2115,0.2114,0.2167,0.2101,0.2132,0.2083,0.2027,0.1936,0.1972,0.2003,0.1899,0.1656,0.1653,0.1651,0.1648,0,0,0.1912,0.19,0.1908,0.1868,0.188,0.184,0.1837,0.1826,0.1868,0.1853,0.1861,0.2021,0.2124,0.1855,0.1847,0.1735,0.1827,0.167,0.2283,0.2214,0.224,0.2324,0.2211,0,0,0,0,0]},{"header":{"parameterUnit":"m.s-1","parameterCategory":2,"la1":30.2991,"la2":30.254,"lo1":-89.0895,"lo2":-89.0444,"dy":0.0017,"dx":0.0017,"nx":28,"ny":28,"refTime":"2023-09-21T09:00:00:Z","depth":"2","parameterNumber":3,"parameterNumberName":"V-component_of_CURRENTS"},"data":[0,0,0,0,0,0,0,0,0,0,0,0,0,0,0,0,0,0,0,0,0,0,0,0,0,0,0,0,0,0,0,0,0,0,0,0,0,0,0,0,0,0,0,0,0,0,0,0,0,0,0,0,0,0,0,0,0,0,-0.0087,-0.0088,0,-0.0147,-0.0148,-0.0149,-0.0188,-0.0188,-0.0188,-0.0188,-0.0278,-0.028,-0.0282,0,0,0,0,0,0,0,0,0,0,0,0,0,-0.004,-0.004,-0.0087,-0.0088,-0.0089,-0.0147,-0.0148,-0.0149,-0.0188,-0.0188,-0.0188,-0.0189,-0.0277,-0.028,-0.0282,0,0,0,0,0,0,0,0,0,0,0,0,0,-0.0076,-0.0041,-0.0087,-0.0115,-0.0118,-0.0147,-0.0148,-0.0149,-0.0188,-0.0188,-0.0188,-0.0189,-0.0276,-0.028,-0.0283,-0.0296,0,0,-0.0293,-0.0294,0,0,0,0,0,0,0,0,-0.0074,-0.0078,-0.011,-0.0113,-0.0116,-0.016,-0.0164,-0.02,-0.0188,-0.0162,-0.0188,-0.0189,-0.0241,-0.0247,-0.0258,-0.0301,-0.0304,-0.0293,-0.0295,-0.0296,-0.0297,0,0,0,0,0,0,0,-0.0072,-0.0076,-0.0111,-0.0111,-0.0115,-0.0136,-0.0141,-0.0171,-0.0199,-0.0164,-0.0167,-0.0173,-0.0243,-0.0254,-0.026,-0.0306,-0.0293,-0.0296,-0.0298,-0.0299,-0.0369,-0.0368,0,0,0,0,0,0,-0.0062,-0.0073,-0.0109,-0.0113,-0.0095,-0.0136,-0.0142,-0.0146,-0.0199,-0.0207,-0.0172,-0.0174,-0.0249,-0.0256,-0.0263,-0.0286,-0.0296,-0.0299,-0.0301,-0.0369,-0.0369,-0.0368,0,0,0,0,0,0,-0.006,-0.0064,-0.0107,-0.0095,-0.0101,-0.0136,-0.0141,-0.0147,-0.0161,-0.0205,-0.0213,-0.018,-0.0249,-0.0259,-0.0288,-0.0289,-0.0301,-0.0304,-0.0369,-0.0369,-0.0368,-0.0328,0,0,0,0,0,0,-0.0059,-0.0063,-0.0063,-0.0094,-0.0102,-0.012,-0.014,-0.0148,-0.0164,-0.0167,-0.0214,-0.0223,-0.025,-0.0283,-0.0291,-0.0294,-0.0306,-0.0369,-0.0369,-0.0369,-0.033,-0.0327,-0.0324,0,0,0,0,0,-0.0057,-0.0052,-0.0062,-0.0067,-0.01,-0.012,-0.0126,-0.0152,-0.0164,-0.0167,-0.0198,-0.0221,-0.0287,-0.0285,-0.0295,-0.0299,-0.0369,-0.0369,-0.0369,-0.0331,-0.0328,-0.0324,0,0,0,0,0,0,-0.0032,-0.0057,-0.0068,-0.0072,-0.0093,-0.0126,-0.0131,-0.015,-0.0177,-0.0181,-0.0222,-0.0233,-0.0258,-0.0283,-0.0279,-0.0318,-0.0331,-0.0333,-0.03,-0.0297,-0.0294,-0.0271,-0.0309,0,0,0,0,0,-0.0025,-0.0029,-0.0057,-0.006,-0.0067,-0.0099,-0.0111,-0.0128,-0.0156,-0.0168,-0.0201,-0.0235,-0.0264,-0.0283,-0.0311,-0.0334,-0.0352,-0.0342,-0.0339,-0.0337,-0.0324,-0.0364,-0.0364,-0.0368,-0.0368,-0.0368,0,0,-0.0017,-0.003,-0.0033,-0.0054,-0.0072,-0.0077,-0.0107,-0.012,-0.0126,-0.0174,-0.0192,-0.0227,-0.0267,-0.0291,-0.0305,-0.0313,-0.0342,-0.0336,-0.0334,-0.0323,-0.0364,-0.0364,-0.0363,-0.0367,-0.0367,-0.0367,0,0,0.0002,-0.0012,-0.0008,-0.0021,-0.0042,-0.0061,-0.0063,-0.0095,-0.0111,-0.0134,-0.0168,-0.02,-0.0246,-0.0274,-0.0294,-0.0293,-0.0325,-0.0305,-0.0277,-0.0316,-0.0316,-0.0316,-0.0324,-0.0325,-0.0306,-0.0306,-0.0306,0,0.0014,0.0016,-0.001,-0.0008,-0.0012,-0.0049,-0.0043,-0.0065,-0.0103,-0.0112,-0.0132,-0.0195,-0.0236,-0.0261,-0.0264,-0.0287,-0.0304,-0.0287,-0.0312,-0.0313,-0.0314,-0.0322,-0.0324,-0.0304,-0.0304,-0.0305,-0.0305,0,0.0036,0.0038,0.0041,0.0034,0.0024,0.0024,-0.0005,-0.0016,-0.0042,-0.0068,-0.0098,-0.0152,-0.0189,-0.0211,-0.024,-0.0264,-0.0272,-0.0303,-0.0319,-0.0311,-0.032,-0.0323,-0.0301,-0.0302,-0.0303,-0.0303,0,0,0.0067,0.0059,0.0061,0.0069,0.0048,0.0046,0.004,0.0024,0.0026,-0.0022,-0.0027,-0.0091,-0.0124,-0.0149,-0.0193,-0.0229,-0.0255,-0.0265,-0.0268,-0.0268,-0.032,-0.032,-0.0323,-0.0296,-0.0297,-0.0297,-0.0318,0,0.0095,0.0114,0.01,0.012,0.0129,0.0103,0.0105,0.0085,0.0056,0.0041,-0.0019,-0.0047,-0.0101,-0.012,-0.0165,-0.0232,-0.0263,-0.0245,-0.0331,-0.0333,-0.0331,-0.0327,-0.03,-0.0316,-0.0321,-0.0322,-0.0322,0,0.0126,0.0136,0.016,0.0173,0.0175,0.0181,0.0184,0.0178,0.0144,0.012,0.0077,0.0029,-0.0026,-0.0077,-0.0179,-0.0167,-0.0235,-0.0287,-0.029,-0.0305,-0.0338,-0.0329,-0.0321,-0.0327,-0.0327,-0.0326,-0.0326,0,0.0168,0.0182,0.0206,0.0209,0.0213,0.0224,0.0223,0.0202,0.0212,0.0165,0.0169,0.0086,0.0059,-0.0046,-0.0155,-0.0175,-0.0257,-0.0303,-0.0359,-0.0359,-0.0358,-0.0357,-0.0372,-0.0372,-0.0372,-0.0372,-0.0372,0,0.0209,0.023,0.0229,0.0246,0.0285,0.0266,0.03,0.0285,0.0279,0.0307,0.0212,0.0224,0.0062,-0.0004,-0.0123,-0.0235,-0.0237,-0.0343,-0.0368,-0.0342,-0.0339,-0.0371,-0.0371,-0.0373,-0.0372,-0.0372,-0.0372,0,0.0251,0.025,0.0284,0.0297,0.0306,0.0332,0.0361,0.0386,0.0368,0.0404,0.0395,0.0328,0.0237,0.0091,-0.0065,-0.0176,-0.0298,-0.0337,-0.0277,-0.0296,-0.038,-0.0377,-0.0408,-0.0409,-0.0409,-0.0409,-0.0409,0,0.0274,0.0295,0.0326,0.0354,0.0362,0.0397,0.043,0.0427,0.0461,0.0483,0.0513,0.0443,0.0412,0.0192,-0.0026,-0.0224,-0.0265,-0.0328,-0.0373,-0.0363,-0.0385,-0.0382,-0.0379,-0.0349,-0.0348,-0.0348,-0.0348,0,0.0322,0.0331,0.0359,0.0414,0.0453,0.0503,0.0548,0.0594,0.0612,0.0645,0.0688,0.0669,0.0474,0.0277,0.0003,-0.0136,-0.0302,-0.0328,-0.034,-0.0344,-0.031,-0.033,-0.0329,-0.0345,-0.0346,-0.0346,-0.0346,-0.0346,0.0359,0.0387,0.0425,0.0479,0.053,0.0601,0.065,0.0711,0.0781,0.0839,0.0822,0.0796,0.0585,0.0233,-0.0005,-0.027,-0.027,-0.0367,-0.0368,-0.0368,-0.0358,-0.0326,-0.0361,-0.0361,-0.0361,-0.0362,-0.0362,0,0.0403,0.0432,0.0486,0.055,0.0613,0.0631,0.0726,0.0775,0.0867,0.0919,0.0944,0.0757,0.0548,0.0293,-0.009,-0.0314,-0.0344,-0.0388,-0.0373,-0.0373,-0.0374,-0.0365,-0.0369,-0.037,-0.0371,-0.0371,0,0,0.0427,0.0481,0.0504,0.0607,0.0656,0.0737,0.0792,0.087,0.0921,0.0969,0.0957,0.0925,0.0631,0.0359,0.0058,-0.0161,-0.0224,-0.0209,-0.0177,-0.0125,-0.0123,-0.0333,-0.0315,0,0,0,0,0]}],[{"header":{"parameterUnit":"m.s-1","parameterCategory":2,"la1":30.2991,"la2":30.254,"lo1":-89.0895,"lo2":-89.0444,"dy":0.0017,"dx":0.0017,"nx":28,"ny":28,"refTime":"2023-09-21T09:00:00:Z","depth":"4","parameterNumber":2,"parameterNumberName":"U-component_of_CURRENTS"},"data":[0,0,0,0,0,0,0,0,0,0,0,0,0,0,0,0,0,0,0,0,0,0,0,0,0,0,0,0,0,0,0,0,0,0,0,0,0,0,0,0,0,0,0,0,0,0,0,0,0,0,0,0,0,0,0,0,0,0,0.144,0.1441,0,0.1481,0.1481,0.1481,0.1525,0.1526,0.1526,0.1527,0.1579,0.1579,0.158,0,0,0,0,0,0,0,0,0,0,0,0,0,0.1383,0.1384,0.144,0.1441,0.1442,0.1481,0.1481,0.1481,0.1525,0.1526,0.1527,0.1528,0.1578,0.1579,0.158,0,0,0,0,0,0,0,0,0,0,0,0,0,0.1412,0.1384,0.144,0.147,0.1473,0.1481,0.1481,0.1482,0.1525,0.1526,0.1527,0.1528,0.1578,0.1579,0.158,0.1562,0,0,0.1583,0.1583,0,0,0,0,0,0,0,0,0.1411,0.1414,0.1465,0.1468,0.1471,0.1501,0.148,0.151,0.1524,0.1503,0.1527,0.1529,0.1554,0.1557,0.1559,0.1564,0.1566,0.1583,0.1583,0.1584,0.1584,0,0,0,0,0,0,0,0.1409,0.1413,0.1454,0.1465,0.1469,0.1475,0.148,0.1485,0.152,0.1505,0.1508,0.1516,0.1556,0.1558,0.1561,0.1567,0.1583,0.1584,0.1584,0.1585,0.1659,0.166,0,0,0,0,0,0,0.1407,0.1411,0.1453,0.1456,0.1445,0.1475,0.1481,0.1488,0.152,0.1526,0.1515,0.1518,0.1556,0.1559,0.1563,0.1632,0.1584,0.1585,0.1585,0.1657,0.1659,0.1661,0,0,0,0,0,0,0.1406,0.1411,0.1452,0.1436,0.1442,0.1475,0.1483,0.1489,0.1525,0.1527,0.1534,0.1549,0.1557,0.1561,0.1598,0.1631,0.1585,0.1586,0.1656,0.1658,0.166,0.1714,0,0,0,0,0,0,0.1404,0.141,0.1429,0.1436,0.1443,0.1479,0.1482,0.1489,0.1526,0.1532,0.1558,0.1562,0.1558,0.1597,0.1599,0.1632,0.1587,0.1654,0.1657,0.1659,0.1711,0.1718,0.1724,0,0,0,0,0,0.1402,0.1417,0.143,0.1436,0.1463,0.148,0.1485,0.151,0.1527,0.1547,0.1568,0.1563,0.1616,0.1599,0.1601,0.1635,0.1653,0.1656,0.1659,0.1708,0.1716,0.1724,0,0,0,0,0,0,0.1403,0.1423,0.1437,0.146,0.1481,0.1489,0.1514,0.1528,0.1559,0.1575,0.1577,0.1582,0.1627,0.1623,0.1604,0.1665,0.1635,0.1639,0.1671,0.168,0.1686,0.1679,0.1587,0,0,0,0,0,0.1411,0.1432,0.1449,0.1472,0.1485,0.1506,0.1523,0.154,0.156,0.1577,0.1595,0.1616,0.1634,0.1653,0.1663,0.1695,0.1695,0.172,0.1726,0.1732,0.1729,0.1752,0.1761,0.1671,0.1671,0.1671,0,0,0.1418,0.1434,0.1447,0.1475,0.1495,0.1515,0.152,0.1554,0.1578,0.1576,0.1625,0.164,0.1647,0.1684,0.1704,0.1691,0.1764,0.1736,0.1741,0.1734,0.1757,0.1765,0.1773,0.1673,0.1673,0.1673,0,0,0.1429,0.1459,0.1477,0.1498,0.1534,0.1545,0.1563,0.159,0.1615,0.1654,0.1662,0.1697,0.1727,0.1738,0.1746,0.1796,0.1796,0.1811,0.1843,0.1867,0.1875,0.1881,0.1914,0.1923,0.1818,0.1818,0.1818,0,0.1441,0.1463,0.1486,0.1508,0.1529,0.1562,0.1583,0.1609,0.1648,0.167,0.1681,0.1738,0.1748,0.1785,0.1808,0.1811,0.1829,0.1812,0.1876,0.1882,0.1887,0.192,0.1929,0.1821,0.1821,0.182,0.182,0,0.1455,0.1486,0.1501,0.1538,0.1563,0.1592,0.1623,0.1661,0.1698,0.1721,0.1778,0.1796,0.183,0.1845,0.1844,0.1894,0.1898,0.1879,0.1853,0.1899,0.1931,0.1939,0.1825,0.1824,0.1823,0.1823,0,0,0.144,0.1499,0.1507,0.1532,0.1583,0.1601,0.1649,0.1693,0.1734,0.178,0.1827,0.1867,0.1891,0.1901,0.1912,0.1935,0.1999,0.1933,0.1932,0.1962,0.2071,0.1957,0.1955,0.1998,0.1999,0.2,0.2085,0,0.1447,0.1488,0.1516,0.1563,0.1586,0.1632,0.1671,0.172,0.1769,0.1825,0.186,0.1911,0.1909,0.1942,0.1966,0.199,0.2021,0.1979,0.2023,0.2025,0.1914,0.196,0.2004,0.2091,0.2093,0.2094,0.2095,0,0.1443,0.1474,0.1516,0.1577,0.1593,0.1631,0.1703,0.1746,0.1825,0.1865,0.1922,0.1956,0.2014,0.1998,0.2067,0.2047,0.2066,0.2076,0.208,0.1953,0.1924,0.203,0.211,0.2109,0.2108,0.2107,0.2106,0,0.1407,0.1471,0.1507,0.1529,0.1602,0.1639,0.1688,0.1764,0.1808,0.1902,0.1949,0.2012,0.2066,0.2092,0.2132,0.2112,0.2198,0.2166,0.2082,0.2076,0.2129,0.2121,0.2206,0.2206,0.2206,0.2205,0.2205,0,0.1384,0.1418,0.1502,0.1522,0.1576,0.1634,0.1701,0.1759,0.1845,0.1897,0.1978,0.202,0.2094,0.2151,0.2161,0.2154,0.2228,0.2091,0.2085,0.2153,0.2147,0.2136,0.2127,0.2208,0.2208,0.2207,0.2207,0,0.1331,0.1388,0.1436,0.1526,0.156,0.1602,0.1705,0.1746,0.1846,0.1917,0.1953,0.2057,0.2125,0.2188,0.2245,0.2188,0.219,0.217,0.2267,0.2264,0.2047,0.204,0.2071,0.2067,0.2064,0.2062,0.206,0,0.1302,0.1324,0.143,0.1463,0.1511,0.1585,0.1629,0.1733,0.1774,0.1915,0.1936,0.2051,0.2107,0.2105,0.217,0.2194,0.2165,0.2157,0.2065,0.204,0.2032,0.2029,0.2026,0.2055,0.2055,0.2054,0.2053,0,0.1247,0.1301,0.1342,0.1413,0.1471,0.152,0.1597,0.1612,0.1727,0.1837,0.1873,0.1908,0.1988,0.2024,0.2072,0.2075,0.2149,0.2126,0.213,0.2044,0.2022,0.2016,0.2016,0.2043,0.2044,0.2045,0.2046,0,0.1213,0.1229,0.1296,0.1344,0.1413,0.1432,0.1481,0.1525,0.1577,0.1725,0.1733,0.1854,0.1962,0.1965,0.1999,0.2006,0.1963,0.1884,0.1901,0.1913,0.1819,0.1766,0.1705,0,0,0,0,0,0.1166,0.1177,0.122,0.1264,0.1325,0.1365,0.1445,0.1493,0.1602,0.1587,0.1653,0.1713,0.1761,0.1821,0.1797,0.1934,0.1977,0.1896,0.1895,0.1987,0.1999,0.1902,0,0,0,0,0,0,0.1136,0.1176,0.1188,0.1183,0.1199,0.125,0.1296,0.137,0.1364,0.1485,0.152,0.1618,0.1693,0.1767,0.1768,0.1789,0.1753,0.1976,0.1972,0.1981,0.1991,0.2,0.1905,0,0,0,0,0]},{"header":{"parameterUnit":"m.s-1","parameterCategory":2,"la1":30.2991,"la2":30.254,"lo1":-89.0895,"lo2":-89.0444,"dy":0.0017,"dx":0.0017,"nx":28,"ny":28,"refTime":"2023-09-21T09:00:00:Z","depth":"4","parameterNumber":3,"parameterNumberName":"V-component_of_CURRENTS"},"data":[0,0,0,0,0,0,0,0,0,0,0,0,0,0,0,0,0,0,0,0,0,0,0,0,0,0,0,0,0,0,0,0,0,0,0,0,0,0,0,0,0,0,0,0,0,0,0,0,0,0,0,0,0,0,0,0,0,0,0.0041,0.0041,0,0.0002,0.0001,0.0001,-0.0024,-0.0024,-0.0024,-0.0024,-0.0078,-0.0079,-0.0081,0,0,0,0,0,0,0,0,0,0,0,0,0,0.0068,0.0068,0.0041,0.0041,0.004,0.0002,0.0001,0.0,-0.0024,-0.0024,-0.0024,-0.0024,-0.0078,-0.0079,-0.0081,0,0,0,0,0,0,0,0,0,0,0,0,0,0.0045,0.0068,0.0041,0.0024,0.0022,0.0002,0.0001,0.0,-0.0024,-0.0024,-0.0024,-0.0024,-0.0077,-0.0079,-0.0081,-0.009,0,0,-0.0087,-0.0088,0,0,0,0,0,0,0,0,0.0047,0.0044,0.0027,0.0025,0.0022,-0.0006,-0.0009,-0.003,-0.0024,-0.0007,-0.0024,-0.0024,-0.0055,-0.0059,-0.0066,-0.0092,-0.0095,-0.0087,-0.0089,-0.0089,-0.009,0,0,0,0,0,0,0,0.0048,0.0046,0.0025,0.0026,0.0024,0.0008,0.0005,-0.0013,-0.003,-0.0008,-0.001,-0.0014,-0.0056,-0.0064,-0.0068,-0.0095,-0.0087,-0.0089,-0.009,-0.0091,-0.0122,-0.0122,0,0,0,0,0,0,0.0055,0.0048,0.0027,0.0024,0.0035,0.0008,0.0004,0.0003,-0.0029,-0.0034,-0.0014,-0.0015,-0.0061,-0.0065,-0.007,-0.0066,-0.0089,-0.0091,-0.0092,-0.0122,-0.0122,-0.0121,0,0,0,0,0,0,0.0056,0.0054,0.0028,0.0035,0.003,0.0008,0.0006,0.0002,-0.0006,-0.0034,-0.0039,-0.0018,-0.0061,-0.0067,-0.0082,-0.0069,-0.0092,-0.0094,-0.0123,-0.0122,-0.0122,-0.0069,0,0,0,0,0,0,0.0057,0.0055,0.0056,0.0035,0.003,0.0021,0.0006,0.0002,-0.0008,-0.001,-0.0039,-0.0044,-0.0062,-0.0079,-0.0084,-0.0072,-0.0095,-0.0123,-0.0122,-0.0122,-0.0071,-0.0067,-0.0063,0,0,0,0,0,0.0058,0.0063,0.0057,0.0054,0.0034,0.0022,0.0018,0.0001,-0.0008,-0.0008,-0.0027,-0.0043,-0.0078,-0.008,-0.0086,-0.0075,-0.0123,-0.0123,-0.0122,-0.0073,-0.0068,-0.0063,0,0,0,0,0,0,0.0076,0.0061,0.0053,0.0053,0.0041,0.0018,0.0016,0.0003,-0.0013,-0.0015,-0.0042,-0.0048,-0.0056,-0.0074,-0.0076,-0.0082,-0.0102,-0.0102,-0.0063,-0.0058,-0.0054,-0.004,-0.0097,0,0,0,0,0,0.0082,0.0082,0.0063,0.0064,0.0059,0.0038,0.0031,0.0019,0.0002,-0.0006,-0.0026,-0.0045,-0.0057,-0.0065,-0.0081,-0.0087,-0.0109,-0.0082,-0.0078,-0.0075,-0.0068,-0.0084,-0.008,-0.0119,-0.0119,-0.0119,0,0,0.0089,0.0081,0.008,0.0068,0.0057,0.0059,0.0033,0.0026,0.003,-0.0009,-0.0011,-0.0034,-0.0056,-0.0059,-0.0064,-0.0073,-0.0078,-0.0073,-0.007,-0.0065,-0.0082,-0.0079,-0.0075,-0.0118,-0.0118,-0.0118,0,0,0.0106,0.0097,0.0104,0.0097,0.0084,0.0073,0.0073,0.0051,0.0045,0.0037,0.0015,0.0,-0.0023,-0.0033,-0.004,-0.0025,-0.0057,-0.0031,0.0003,-0.0012,-0.0009,-0.0007,-0.004,-0.0041,-0.0027,-0.0027,-0.0027,0,0.0116,0.0123,0.0104,0.011,0.0112,0.0084,0.0096,0.0086,0.0062,0.0061,0.0045,0.0017,-0.0006,-0.0002,0.0003,-0.0014,-0.0035,-0.0013,-0.0006,-0.0004,-0.0002,-0.0037,-0.0039,-0.0024,-0.0024,-0.0025,-0.0025,0,0.0138,0.0146,0.015,0.0153,0.0151,0.0156,0.0143,0.014,0.0127,0.0112,0.0106,0.0075,0.0058,0.0051,0.0031,0.0036,0.0011,0.0,-0.0016,0.0005,-0.0034,-0.0036,-0.002,-0.0021,-0.0022,-0.0023,0,0,0.0161,0.0166,0.0169,0.0182,0.0177,0.018,0.0191,0.0192,0.02,0.0175,0.0185,0.0158,0.0131,0.0121,0.0093,0.0081,0.0066,0.0049,0.0047,0.002,0.0018,-0.0005,-0.0011,0.0057,0.0058,0.0058,-0.0018,0,0.0188,0.0213,0.0209,0.024,0.0253,0.0242,0.0259,0.0255,0.0239,0.0238,0.021,0.02,0.0162,0.0153,0.0135,0.0084,0.0063,0.0086,-0.0003,-0.0006,-0.0024,-0.0012,0.0058,-0.0021,-0.0021,-0.0022,-0.0022,0,0.0214,0.023,0.0262,0.0291,0.0298,0.0312,0.0332,0.0341,0.033,0.0318,0.0299,0.0264,0.024,0.0206,0.0132,0.0148,0.0088,0.0046,0.0042,0.0003,-0.0032,-0.0045,-0.0027,-0.0027,-0.0026,-0.0026,-0.0026,0,0.0243,0.0271,0.0302,0.0309,0.0332,0.0351,0.0365,0.0363,0.0379,0.0362,0.0363,0.032,0.0301,0.0232,0.0132,0.0132,0.0048,0.0034,-0.0044,-0.0048,-0.0029,-0.0031,-0.0015,-0.0015,-0.0015,-0.0014,-0.0014,0,0.0272,0.0299,0.0318,0.0335,0.0381,0.0384,0.0424,0.0427,0.0436,0.0457,0.0403,0.0402,0.0308,0.0243,0.0151,0.0042,0.0055,-0.0037,-0.0063,-0.0007,-0.0006,-0.0032,-0.0033,-0.0017,-0.0017,-0.0016,-0.0016,0,0.0293,0.0305,0.0344,0.0378,0.0394,0.0424,0.0469,0.0493,0.0494,0.0518,0.0517,0.0464,0.0371,0.0261,0.0141,0.0066,-0.0037,-0.0082,-0.0026,-0.0048,-0.013,-0.0127,-0.0172,-0.0173,-0.0174,-0.0175,-0.0176,0,0.0304,0.0325,0.0374,0.04,0.0416,0.0461,0.0496,0.0519,0.0541,0.0552,0.0566,0.0491,0.0436,0.0251,0.0129,-0.0052,-0.0078,-0.0134,-0.012,-0.0122,-0.0143,-0.0139,-0.0135,-0.0178,-0.0178,-0.0178,-0.0179,0,0.0325,0.0341,0.0372,0.0425,0.0467,0.0517,0.0563,0.0586,0.0613,0.0622,0.0602,0.0508,0.0401,0.025,0.0104,-0.0022,-0.0094,-0.0146,-0.0144,-0.0131,-0.013,-0.0149,-0.0143,-0.0182,-0.0182,-0.0182,-0.0181,0,0.0339,0.0361,0.0399,0.0446,0.0502,0.055,0.0576,0.0604,0.0632,0.0642,0.0633,0.0521,0.0462,0.0264,0.0133,0.0002,-0.0031,-0.0065,-0.0068,-0.0066,-0.0013,0.0005,-0.0023,0,0,0,0,0,0.0349,0.0371,0.0415,0.0466,0.0522,0.0554,0.0613,0.0632,0.0661,0.0654,0.0646,0.0544,0.0356,0.0276,0.0139,0.0097,-0.0065,-0.0068,-0.0109,-0.0204,-0.0199,-0.0158,0,0,0,0,0,0,0.0353,0.0393,0.0412,0.0474,0.0509,0.0573,0.061,0.0631,0.0624,0.0636,0.0535,0.0506,0.0316,0.043,0.0134,0.0095,0.0051,-0.0152,-0.0155,-0.0206,-0.0202,-0.0199,-0.0154,0,0,0,0,0]}]]